Location: Moscow
(30.9132°N, 94.8252°W)
Time: 23:31:15
(UTC+00:00)

Cosmos 2278 Rocket - Pass Details

Date: 15 November 2025
Orbit: 841 x 843 km, 71.0° (Epoch: 11 December)

Event Time Altitude Azimuth Distance (km) Brightness Sun altitude
Rises 01:18:45 0° 235° (SW) 3,384 6.3 -25.1°
Reaches altitude 10° 01:21:47 10° 251° (WSW) 2,453 5.6 -25.7°
Maximum altitude 01:25:58 21° 299° (WNW) 1,804 4.4 -26.6°
Drops below altitude 10° 01:30:09 10° 347° (NNW) 2,461 4.7 -27.5°
Enters shadow 01:32:32 - 1° (N) 3,174 5.1 -28.0°
